This is the latest recevied weather packets stored in our database for station/object KB3GVC-13. If no packets are shown the sender has not sent any weather packets the latest 10 day(s).
| Time | Temp. | Humidity | Pressure | Rain* | Wind** | Luminosity | Snow |
|---|---|---|---|---|---|---|---|
| 1777819088 | 11.11° C | 47% | 1016.6 hPa | 0 mm | - | - | - |
| 1777818784 | 10.56° C | 46% | 1016.7 hPa | 0 mm | - | - | - |
| 1777818480 | 10.56° C | 48% | 1016.6 hPa | 0 mm | - | - | - |
| 1777818177 | 11.11° C | 46% | 1016.5 hPa | 0 mm | - | - | - |
| 1777817874 | 10.56° C | 49% | 1016.5 hPa | 0 mm | - | - | - |
| 1777817572 | 10.56° C | 49% | 1016.5 hPa | 0 mm | - | - | - |
| 1777817268 | 10.56° C | 50% | 1016.5 hPa | 0 mm | - | - | - |
| 1777816965 | 10.56° C | 50% | 1016.4 hPa | 0 mm | - | - | - |
| 1777816661 | 10.56° C | 50% | 1016.5 hPa | 0 mm | - | - | - |
| 1777816358 | 10.56° C | 52% | 1016.4 hPa | 0 mm | - | - | - |
| 1777816056 | 10° C | 52% | 1016.5 hPa | 0 mm | - | - | - |
| 1777815753 | 10° C | 54% | 1016.6 hPa | 0 mm | - | - | - |
| 1777815451 | 10° C | 53% | 1016.5 hPa | 0 mm | - | - | - |
| 1777815148 | 10° C | 53% | 1016.3 hPa | 0 mm | - | - | - |
| 1777814845 | 9.44° C | 54% | 1016.3 hPa | 0 mm | - | - | - |
| 1777814540 | 10° C | 55% | 1016.3 hPa | 0 mm | - | - | - |
| 1777814238 | 9.44° C | 56% | 1016.4 hPa | 0 mm | - | - | - |
| 1777813935 | 8.89° C | 57% | 1016.2 hPa | 0 mm | - | - | - |
| 1777813633 | 9.44° C | 57% | 1016 hPa | 0 mm | - | - | - |
| 1777813330 | 10° C | 57% | 1015.9 hPa | 0 mm | - | - | - |
| 1777813027 | 10° C | 56% | 1016.2 hPa | 0 mm | - | - | - |
| 1777812725 | 10° C | 56% | 1016 hPa | 0 mm | - | - | - |
| 1777812421 | 10° C | 57% | 1016 hPa | 0 mm | - | - | - |
| 1777812119 | 10° C | 56% | 1015.9 hPa | 0 mm | - | - | - |
| 1777811817 | 9.44° C | 57% | 1015.9 hPa | 0 mm | - | - | - |
* Rain latest hour (hover to see other rain measurements)
** Current wind speed in m/s (hover to see current wind gust speed)